Montreal Mirabel, Quebec

7:08 PM EST on February 06, 2016 (GMT -0500)
Montreal International (Mirabel)

Weather History for CYMX - May, 2013

Change the Weather History Date:

Sunday, May 5, 2013

  Actual Average Record
Temperature  
Mean Temperature 62 °F -  
Max Temperature 78 °F 60 °F 78 °F (1999)
Min Temperature 46 °F 40 °F 30 °F (1997)
Degree Days  
Heating Degree Days 3    
Growing Degree Days 12 (Base 50)    
Moisture  
Dew Point 41 °F    
Average Humidity 48    
Maximum Humidity 76    
Minimum Humidity 24    
Precipitation  
Precipitation 0.00 in - - ()
Sea Level Pressure  
Sea Level Pressure 30.17 in    
Wind  
Wind Speed 3 mph ()    
Max Wind Speed 12 mph    
Max Gust Speed -    
Averages and records for this station are not official NWS values.
T = Trace of Precipitation, MM = Missing Value Source: Averaged Metar Reports

Daily Weather History Graph

Daily Weather History Graph

Search for Another Location

Airport or City:

Trip Planner

Search our weather history database for the weather conditions in past years. The results will help you decide how hot, cold, wet, or windy it might be!

Date:

Astronomy

May. 05, 2013 Rise Set
Actual Time 5:37 AM EDT 8:08 PM EDT
Civil Twilight 5:04 AM EDT 8:42 PM EDT
Nautical Twilight 4:22 AM EDT 9:24 PM EDT
Astronomical Twilight 3:34 AM EDT 10:12 PM EDT
Moon 3:19 AM EDT (5/5) 3:54 PM EDT (5/5)
Length of Visible Light 15h 38m
Length of Day
14h 31m
Waning Crescent, 18% of the Moon is Illuminated
May 5
Waning Crescent
May 9
New
May 18
First Quarter
May 25
Full
May 31
Last Quarter

Hourly Weather History & Observations

Time (EDT) Temp. Windchill Dew Point Humidity Pressure Visibility Wind Dir Wind Speed Gust Speed Precip Events Conditions
12:00 AM 51.8 °F - 39.2 °F 62% 30.20 in 25.0 mi East 4.6 mph - N/A   Clear
1:00 AM 51.8 °F - 39.2 °F 62% 30.20 in 25.0 mi North 2.3 mph - N/A   Clear
2:00 AM 50.0 °F - 41.0 °F 71% 30.19 in 25.0 mi NNW 2.3 mph - N/A   Clear
3:00 AM 50.0 °F - 39.2 °F 66% 30.19 in 25.0 mi Calm Calm - N/A   Clear
4:00 AM 48.2 °F - 39.2 °F 71% 30.20 in 25.0 mi WNW 2.3 mph - N/A   Clear
5:00 AM 46.4 °F 45.2 °F 39.2 °F 76% 30.19 in 25.0 mi North 3.5 mph - N/A   Clear
6:00 AM 46.4 °F - 39.2 °F 76% 30.20 in 45.0 mi Calm Calm - N/A   Partly Cloudy
7:00 AM 51.8 °F - 42.8 °F 71% 30.21 in 45.0 mi ESE 3.5 mph - N/A   Partly Cloudy
8:00 AM 57.2 °F - 42.8 °F 59% 30.22 in 25.0 mi South 2.3 mph - N/A   Partly Cloudy
9:00 AM 64.4 °F - 42.8 °F 45% 30.22 in 25.0 mi SE 3.5 mph - N/A   Partly Cloudy
10:00 AM 68.0 °F - 42.8 °F 40% 30.22 in 25.0 mi South 3.5 mph - N/A   Partly Cloudy
11:00 AM 71.6 °F - 44.6 °F 38% 30.21 in 25.0 mi South 3.5 mph - N/A   Partly Cloudy
12:00 PM 75.2 °F - 44.6 °F 34% 30.19 in 25.0 mi SSE 6.9 mph - N/A   Partly Cloudy
1:00 PM 75.2 °F - 42.8 °F 31% 30.17 in 45.0 mi SE 6.9 mph - N/A   Partly Cloudy
2:00 PM 77.0 °F - 44.6 °F 32% 30.16 in 45.0 mi SSE 6.9 mph - N/A   Partly Cloudy
3:00 PM 77.0 °F - 39.2 °F 26% 30.15 in 45.0 mi South 5.8 mph - N/A   Partly Cloudy
4:00 PM 78.8 °F - 42.8 °F 28% 30.13 in 45.0 mi South 8.1 mph - N/A   Partly Cloudy
5:00 PM 78.8 °F - 41.0 °F 26% 30.11 in 45.0 mi South 11.5 mph - N/A   Partly Cloudy
6:00 PM 78.8 °F - 39.2 °F 24% 30.11 in 45.0 mi SW 3.5 mph - N/A   Partly Cloudy
7:00 PM 75.2 °F - 41.0 °F 29% 30.11 in 45.0 mi South 5.8 mph - N/A   Partly Cloudy
8:00 PM 71.6 °F - 41.0 °F 33% 30.11 in 45.0 mi South 4.6 mph - N/A   Partly Cloudy
9:00 PM 66.2 °F - 41.0 °F 40% 30.12 in 25.0 mi South 4.6 mph - N/A   Partly Cloudy
10:00 PM 64.4 °F - 42.8 °F 45% 30.12 in 25.0 mi South 5.8 mph - N/A   Clear
11:00 PM 59.0 °F - 42.8 °F 55% 30.11 in 25.0 mi WNW 2.3 mph - N/A   Clear